Location: Ferintosh
(52.7647°N, 112.9692°W)
Time: 14:58:21
(UTC+00:00)

Transit 2A - Pass Details

Date: 18 May 2024
Orbit: 592 x 959 km, 66.7° (Epoch: 23 June)

Event Time Altitude Azimuth Distance (km) Brightness Sun altitude
Rises 17:28:36 0° 308° (NW) 3,424 9.0 49.7°
Reaches altitude 10° 17:32:27 10° 283° (WNW) 2,557 8.5 50.1°
Maximum altitude 17:35:02 13° 257° (WSW) 2,379 8.5 50.4°
Drops below altitude 10° 17:37:40 10° 231° (SW) 2,629 8.9 50.7°
Sets 17:41:46 0° 206° (SSW) 3,608 9.7 51.1°
